Wind_Speed
6 4 7 7 7 9 8 6 5 4 4 5 6 6 6 7 7 7 8 9 10 10 10 11 11 11 11 11 10 10 10 10 10 10 9 9 7 6 5 3 3 2 3 5 5 5 6 7 7 7 8 9 8 8 7 8 9 9 10 10 11 11 10 10 11 11 11 10 10 9 9 9 9 10 10 10 8 7 6 6 5 5 5 5 6
5 4 8 8 9 10 8 5 3 3 3 3 4 4 5 5 6 6 7 8 8 9 10 10 10 10 10 10 10 10 10 11 11 11 10 10 8 7 5 3 2 2 3 4 5 5 6 7 6 6 7 7 6 6 6 7 9 11 13 13 12 11 11 11 11 12 11 10 9 8 9 10 11 11 10 9 8 7 6 5 5 5 5 7 8
3 6 8 8 9 10 7 5 3 2 2 2 2 3 3 4 5 6 7 8 8 8 9 9 10 10 10 10 10 10 10 10 10 10 10 9 8 8 6 4 3 3 3 3 5 5 6 7 7 6 6 7 5 4 5 7 11 13 14 13 12 11 11 11 11 11 10 9 9 9 10 12 12 11 10 9 8 8 6 6 6 6 7 8 9
6 9 11 11 10 10 8 5 3 1 1 1 1 1 2 3 4 5 6 7 8 9 8 8 8 8 8 9 9 9 9 9 9 8 8 8 8 7 6 4 2 3 3 4 5 6 6 6 7 8 6 6 5 3 4 8 12 13 14 13 12 12 11 11 11 10 9 9 9 10 12 13 12 12 10 10 9 9 7 7 8 7 8 9 10
7 8 10 12 11 10 8 5 3 2 2 1 2 3 4 4 4 5 5 6 7 7 7 7 6 6 6 7 8 8 8 8 7 7 8 8 8 7 6 3 1 2 4 5 6 5 5 6 6 8 7 5 5 3 4 8 12 13 13 13 12 12 11 11 11 10 9 9 9 11 13 13 12 12 11 10 10 10 9 9 9 8 9 10 10
7 5 5 7 7 11 9 5 3 6 8 8 10 10 10 8 5 5 5 6 5 5 5 5 4 4 4 4 5 6 6 7 7 7 7 8 8 7 7 4 1 2 5 6 6 5 5 6 5 7 7 5 5 3 5 9 12 13 13 13 13 12 11 11 10 9 10 11 12 13 14 13 12 12 11 11 11 11 11 11 10 9 10 11 11
12 8 3 1 1 11 12 6 5 10 14 14 14 14 12 9 6 5 5 6 5 5 5 4 4 3 2 2 3 4 4 5 6 7 7 7 7 7 6 5 3 2 5 7 7 6 5 6 6 6 6 6 5 3 6 10 13 13 13 13 13 12 11 11 10 10 10 12 13 14 15 14 13 12 11 11 12 13 13 12 11 10 11 11 12
10 8 6 7 6 2 6 7 8 11 13 13 13 11 9 6 5 4 4 4 4 4 5 5 4 4 3 2 1 2 3 4 5 6 6 6 6 7 6 5 3 2 5 7 7 7 7 7 7 6 6 6 4 3 6 10 13 13 13 13 12 12 11 11 11 11 11 13 14 14 15 14 13 13 11 11 12 13 14 13 12 12 12 13 13
7 5 4 5 6 5 2 2 4 7 9 11 10 7 6 4 4 5 5 4 4 3 3 4 4 4 4 3 2 1 1 2 4 4 5 5 6 7 5 4 3 3 6 8 7 8 8 7 8 7 6 5 3 4 7 10 12 12 12 12 12 11 11 11 11 11 12 14 15 15 16 14 13 13 11 11 12 13 14 14 13 13 13 14 14
5 5 5 5 4 3 2 2 3 5 7 9 7 5 5 5 6 7 6 5 4 3 2 2 3 3 4 3 2 2 1 1 3 4 4 5 5 6 5 4 3 5 8 9 8 9 9 7 8 8 6 5 3 5 8 10 11 11 12 11 11 11 11 12 12 12 12 13 15 16 16 14 13 13 11 10 11 11 13 14 14 14 14 14 15
8 7 6 6 4 2 3 4 4 6 7 7 6 5 6 6 7 7 7 7 5 5 4 3 3 3 4 3 3 3 2 1 3 3 3 4 5 5 5 4 5 6 10 11 10 10 9 9 9 8 6 5 4 6 8 10 10 10 11 10 10 10 10 10 11 12 13 13 14 16 16 14 13 13 12 10 9 10 11 13 14 15 14 14 15
8 6 5 5 3 2 3 4 5 6 7 6 5 5 6 6 7 7 8 7 6 6 6 5 5 5 4 4 4 4 3 2 3 3 3 4 5 5 4 3 6 8 10 10 10 10 10 10 9 7 6 5 5 7 9 10 10 10 10 10 10 10 10 10 10 11 14 15 14 16 16 14 13 12 12 10 8 8 9 11 12 13 14 15 14
5 4 3 3 2 2 3 4 6 7 7 6 5 5 6 6 6 6 7 7 6 8 8 8 7 7 6 5 4 5 3 1 2 3 2 3 4 4 4 2 3 7 9 10 10 10 10 10 9 7 6 6 6 7 9 10 10 9 9 10 11 11 11 12 11 11 14 14 13 16 16 14 13 12 12 10 7 7 7 9 10 10 11 13 13
4 4 5 4 4 5 6 6 7 8 7 5 4 5 6 6 6 6 6 6 7 9 10 10 9 8 7 6 5 5 3 1 1 2 1 1 2 3 4 3 1 4 7 10 10 10 10 10 9 7 5 6 6 7 9 10 11 10 10 10 10 11 10 11 12 14 15 13 13 15 15 14 13 12 12 10 8 6 6 7 8 8 9 10 11
4 4 5 5 6 7 7 8 8 8 7 5 4 5 6 6 6 6 6 6 7 9 10 10 9 9 9 8 6 5 3 2 2 2 1 2 2 1 3 3 1 2 6 10 11 11 11 11 10 8 6 5 5 7 9 10 11 11 10 10 10 11 11 11 11 14 16 15 14 14 14 14 13 12 11 10 8 6 5 5 6 5 6 7 8
4 4 6 7 7 8 9 9 8 7 7 6 5 6 7 7 8 7 7 6 7 9 10 10 10 10 10 9 7 6 4 3 4 2 1 2 2 1 1 2 1 3 5 9 12 12 12 11 11 9 7 6 5 7 10 11 11 11 11 10 11 10 11 10 10 13 16 15 14 12 14 15 13 12 10 9 8 6 5 5 5 4 4 4 5
3 3 6 8 8 8 8 8 6 5 6 6 6 6 7 7 7 7 6 5 6 8 9 10 10 10 9 9 7 7 6 5 4 3 2 2 1 2 2 1 2 3 5 8 11 12 11 11 11 10 9 8 7 7 9 11 11 12 12 11 11 11 11 11 11 14 17 16 14 12 13 15 13 11 10 9 7 6 5 5 4 4 4 3 3
4 5 7 8 8 8 6 5 4 3 4 4 5 5 5 5 5 6 5 4 4 6 7 8 9 9 9 8 7 7 7 6 5 3 3 3 2 3 4 3 3 5 6 7 9 11 11 11 11 10 9 9 8 7 9 12 12 12 13 13 13 12 11 12 12 14 16 16 14 13 13 14 13 11 10 9 7 6 5 4 4 4 4 4 3
6 8 8 9 8 6 4 4 3 2 2 2 3 3 4 5 6 6 6 6 4 4 5 6 7 8 9 9 8 8 8 8 6 5 4 4 3 5 6 5 5 5 7 8 9 10 10 11 11 11 10 9 9 8 8 12 14 13 14 14 14 13 13 13 13 13 15 15 14 14 14 14 13 11 10 9 8 7 6 4 4 4 4 4 3
8 9 8 8 7 5 4 3 3 2 2 2 3 3 5 6 7 7 7 7 5 4 5 5 7 7 8 9 8 8 8 9 8 7 6 5 5 5 7 7 6 5 7 9 10 10 10 11 11 11 11 9 9 9 8 10 14 14 14 15 15 15 14 14 14 14 16 15 14 14 14 15 13 12 11 9 9 8 6 5 4 4 4 4 3
9 9 7 5 5 4 3 4 4 3 3 3 4 5 6 7 7 7 7 6 6 5 5 5 6 7 9 9 9 9 9 9 9 8 8 7 6 6 8 9 7 6 7 9 10 11 11 11 11 11 11 10 9 10 9 10 14 15 15 16 16 15 15 15 15 15 16 15 15 14 13 15 14 12 12 10 10 8 7 5 5 5 4 4 4
9 7 7 5 3 3 3 4 4 4 4 4 4 6 7 7 7 7 6 6 5 4 5 6 7 8 9 9 9 9 9 9 8 9 9 9 7 7 8 9 9 7 8 9 10 11 11 11 11 11 11 11 11 10 10 10 13 16 16 16 17 15 14 15 15 14 15 15 15 15 13 14 14 13 12 11 11 9 8 6 5 5 5 5 4
7 6 6 4 3 3 3 3 3 4 4 5 5 6 7 7 7 7 6 5 4 4 4 5 6 7 8 7 8 8 9 9 8 8 9 9 9 8 9 10 10 10 9 9 10 11 12 12 12 12 11 11 11 10 11 11 13 16 16 17 17 16 14 14 15 14 15 15 16 16 14 15 15 14 13 12 11 10 9 8 7 7 7 7 6
5 5 5 3 4 3 2 3 3 2 3 4 5 6 6 6 7 7 7 6 5 4 5 5 5 5 6 7 7 7 8 9 8 8 9 10 10 10 11 10 11 12 11 10 10 11 12 12 13 13 12 11 10 10 10 10 13 15 15 17 17 16 14 14 15 15 15 15 16 17 15 15 16 15 14 14 13 11 10 9 8 8 8 8 7
4 4 3 2 5 3 2 3 2 2 2 4 4 5 6 6 6 7 7 6 5 4 5 6 6 5 7 8 8 7 8 9 9 9 9 10 10 10 11 11 13 14 14 12 11 10 11 12 12 13 12 11 10 10 10 10 11 14 14 15 16 15 14 14 16 16 16 15 16 16 15 15 16 16 15 15 14 13 12 11 10 10 10 9 9
3 2 1 4 5 4 3 3 3 2 2 3 3 4 5 6 6 7 6 6 5 5 5 5 5 6 7 8 8 8 8 9 10 10 9 9 9 10 11 12 14 15 16 14 11 10 11 11 12 12 13 12 11 11 11 10 10 12 14 14 15 15 14 14 15 16 17 16 16 16 16 16 16 17 16 16 15 14 13 12 11 11 11 10 10
2 1 2 5 5 4 4 3 3 2 2 2 3 3 4 5 6 6 6 6 5 6 7 6 5 6 7 8 8 8 8 8 7 9 9 8 9 9 10 12 14 16 17 15 12 11 11 11 11 12 12 12 12 12 11 10 11 12 14 14 15 15 14 15 15 15 17 15 15 17 17 17 17 17 17 17 16 15 14 13 12 12 11 11 11
2 1 3 5 5 4 4 4 4 4 3 3 3 3 3 4 4 5 6 7 7 7 8 6 6 6 6 7 7 7 8 8 6 6 6 6 8 8 9 10 13 16 16 15 13 12 11 11 12 12 12 13 13 13 12 11 12 13 14 15 16 16 15 15 14 14 17 16 15 16 16 17 18 18 18 18 17 16 15 14 13 13 12 12 12
2 2 3 4 4 4 4 4 5 5 5 4 3 3 3 3 3 4 6 7 7 8 8 6 6 6 5 6 7 6 7 7 6 6 5 6 8 8 9 9 12 16 17 16 15 14 13 12 12 12 14 15 14 14 13 11 12 15 15 14 16 17 16 16 15 14 17 17 16 16 17 17 18 19 19 18 18 16 16 15 14 14 13 13 13
3 3 3 3 4 4 4 5 6 6 6 5 3 2 2 2 2 3 4 5 6 7 7 7 7 7 6 7 7 6 6 7 7 7 7 7 9 9 9 11 13 15 17 18 17 15 14 13 14 14 16 17 15 13 14 12 12 16 17 16 16 17 17 16 16 15 16 17 16 17 17 17 17 19 19 19 18 17 16 15 15 14 14 14 13
4 4 3 2 4 4 5 5 6 6 6 5 4 3 2 2 2 3 3 4 6 6 7 8 8 8 8 8 8 7 7 7 7 9 9 8 8 9 10 12 10 10 15 18 18 17 16 16 16 16 17 19 19 15 16 16 15 16 18 19 18 19 19 17 17 17 16 17 17 16 16 16 17 18 19 19 18 17 16 16 15 14 14 14 13
5 4 3 3 3 4 5 5 5 6 6 5 4 4 3 3 3 3 3 4 5 6 7 8 7 8 9 8 9 9 8 8 8 9 9 7 7 9 11 11 9 8 12 17 19 20 20 18 18 17 16 18 21 19 19 20 17 16 17 18 19 20 21 20 19 19 18 18 18 17 16 17 18 18 18 18 17 16 15 15 14 14 13 13 12
5 5 3 3 3 4 4 4 5 6 6 6 5 4 4 4 4 4 4 4 5 5 6 6 6 7 8 9 9 10 9 9 8 8 9 7 7 9 10 10 9 8 11 15 19 20 20 19 19 19 18 17 18 19 20 20 17 16 18 18 18 20 20 20 20 20 20 20 19 19 19 20 21 19 18 17 16 15 15 14 13 13 13 12 12
6 5 4 3 3 3 3 3 4 5 5 5 5 5 4 4 5 5 5 5 5 6 6 6 7 8 10 10 10 10 10 10 9 8 8 7 8 9 9 10 10 9 11 14 17 18 18 18 18 19 21 20 17 17 18 17 15 17 19 19 19 19 19 19 19 21 22 22 22 21 21 21 19 19 18 17 16 16 15 14 14 14 14 13 13
6 6 5 4 3 2 2 3 4 4 5 5 5 5 5 5 5 6 6 6 6 6 7 7 8 8 9 10 11 12 12 11 10 10 9 7 7 8 10 11 11 10 11 13 15 16 18 18 18 18 20 20 17 16 18 16 16 20 20 20 20 19 19 20 20 21 21 22 23 23 21 20 19 19 18 17 16 16 16 16 15 15 15 15 14
6 6 6 5 4 3 2 2 3 4 4 4 5 5 5 5 6 6 6 6 6 7 7 7 8 9 9 11 12 13 13 13 12 11 10 8 8 8 8 8 8 9 10 12 14 16 20 21 18 17 17 17 16 16 20 18 17 20 21 21 21 20 21 21 21 21 20 21 23 24 24 24 23 21 18 17 17 17 17 17 17 17 17 17 16
6 7 6 5 4 4 3 2 3 4 4 4 5 5 6 6 6 6 7 7 7 7 7 7 8 8 9 10 11 12 13 13 12 12 11 9 8 7 7 6 4 6 8 10 12 14 18 20 17 14 14 15 16 18 21 20 18 18 17 19 20 20 21 22 22 21 21 22 23 24 26 26 24 20 16 16 17 17 17 18 18 18 18 18 17
5 6 6 6 5 4 3 3 3 4 4 4 5 5 6 6 6 7 7 7 7 7 6 6 7 7 8 10 11 11 12 12 12 12 12 11 10 9 8 7 4 5 8 9 9 9 11 15 16 14 13 14 17 19 19 18 16 16 15 15 19 21 21 22 23 21 22 23 22 22 23 23 21 17 13 15 17 17 17 18 19 20 20 19 18
3 4 5 6 5 4 3 3 3 3 4 5 5 6 6 6 7 7 7 7 7 7 6 6 6 7 8 9 10 10 10 10 11 11 11 11 11 11 10 9 8 6 7 8 8 8 8 11 14 15 15 16 17 18 17 15 14 15 17 17 19 21 21 21 21 21 22 23 22 21 20 18 16 13 11 13 16 17 17 18 19 19 19 19 18
3 3 4 5 4 4 3 3 3 3 3 4 5 6 6 6 7 7 7 7 7 7 7 6 7 7 8 9 9 9 9 9 10 10 10 10 10 10 11 11 11 11 10 9 8 9 9 11 13 15 17 18 19 20 19 18 17 17 18 18 18 21 22 20 19 19 21 22 22 21 19 17 15 13 12 13 15 16 17 18 19 19 19 19 19
5 4 4 4 4 3 2 2 2 2 2 3 4 5 6 6 6 6 7 7 7 7 7 7 7 7 8 9 9 9 9 9 9 9 10 10 10 10 10 10 10 10 11 10 9 8 7 8 10 11 14 17 19 20 20 21 21 20 19 19 18 19 21 21 20 20 21 22 23 22 21 20 17 15 13 14 16 17 16 17 18 18 18 18 20
7 6 5 4 4 3 2 1 1 1 1 2 3 3 4 4 5 5 6 6 7 7 7 7 7 8 8 9 9 9 9 9 9 9 9 9 10 10 10 9 9 8 9 9 9 9 8 7 7 7 9 12 15 17 18 19 20 20 19 20 20 19 20 21 21 21 21 23 23 22 22 21 18 17 18 18 19 19 17 16 16 17 18 19 20
9 8 7 5 5 4 3 2 1 1 1 1 1 1 2 3 4 4 5 6 6 7 7 8 8 8 8 9 9 9 9 9 9 9 9 9 9 10 10 10 9 9 8 8 9 9 9 8 7 7 6 7 10 13 15 16 17 17 17 18 20 20 19 20 21 21 23 24 23 21 22 22 19 18 20 19 19 19 17 17 19 19 20 21 21
12 10 9 7 6 5 5 4 3 3 2 2 2 2 1 1 2 3 4 5 5 6 7 7 8 8 8 9 8 9 9 9 9 9 9 9 9 9 9 10 11 11 10 9 9 9 9 9 8 8 7 7 7 9 12 14 15 16 16 16 18 19 20 21 20 21 24 25 23 22 23 23 21 18 18 18 18 17 17 19 21 21 22 25 25
15 13 11 10 9 8 7 6 5 5 5 5 4 3 3 2 2 2 3 4 5 5 6 7 7 8 8 8 8 8 8 7 8 8 8 8 9 9 8 9 10 11 12 11 10 10 10 9 9 9 9 8 8 8 8 10 12 14 14 14 15 17 19 21 20 20 23 25 24 23 23 22 21 19 16 15 16 18 18 19 20 21 23 23 22
17 15 14 12 11 11 10 9 8 8 8 7 6 5 5 4 3 2 2 3 4 4 5 6 6 7 8 8 8 7 7 7 7 7 7 7 8 8 9 8 9 10 11 12 12 11 11 11 10 10 10 9 8 8 8 7 8 9 10 12 13 13 15 18 19 20 22 23 24 24 24 24 22 20 17 16 17 17 17 18 19 21 23 23 23
20 18 16 15 14 13 12 12 10 10 10 10 9 8 7 7 5 5 4 4 4 4 5 5 6 7 8 8 8 8 8 7 7 7 7 7 7 8 9 10 10 10 10 11 12 12 12 12 11 11 11 10 10 9 8 7 7 7 7 8 10 10 11 12 15 19 21 23 23 23 25 26 26 25 22 21 23 22 22 22 23 24 26 26 25
22 19 17 16 16 15 15 14 13 13 13 12 11 11 10 10 9 8 8 6 5 5 5 6 6 7 8 9 9 9 9 8 8 8 8 8 8 9 9 11 12 12 12 11 12 13 13 13 12 12 12 12 11 11 11 10 9 7 6 6 7 9 10 10 10 12 16 18 20 22 25 26 27 27 26 25 26 25 25 24 25 27 28 27 25
19 18 17 16 17 18 17 17 17 16 16 15 14 14 13 13 12 12 12 10 8 7 7 7 7 7 8 8 9 10 10 10 9 9 8 8 9 9 9 10 12 13 14 13 13 13 13 14 13 12 13 13 12 12 12 12 12 11 10 9 9 10 11 10 9 9 11 13 13 16 20 22 24 26 27 28 27 25 25 25 25 28 31 32 31
18 16 17 17 19 21 21 20 20 19 19 18 17 17 16 16 15 15 15 14 11 10 10 9 9 9 9 9 9 10 11 12 11 11 10 10 9 10 10 10 11 13 14 15 14 13 13 13 14 13 13 13 14 14 14 14 14 14 13 13 13 14 14 13 13 13 13 13 13 13 14 16 19 21 23 25 27 27 27 28 29 29 31 32 33
20 19 19 20 22 23 24 23 23 22 21 21 20 20 19 19 18 18 18 16 15 14 13 12 12 11 11 10 10 10 11 12 13 13 12 12 11 11 11 11 12 13 13 14 14 14 13 12 12 13 14 14 14 14 15 15 15 15 16 16 16 16 17 17 18 17 17 17 17 16 16 16 17 18 20 21 23 24 23 24 25 25 26 27 28
Wind_Direction
33 100 158 151 124 95 88 89 90 100 99 98 87 80 75 73 75 79 85 87 89 85 81 78 75 74 74 72 68 61 54 48 42 37 31 27 20 15 15 32 63 73 91 98 100 103 116 127 125 122 113 104 104 116 132 143 146 148 150 149 146 143 140 138 138 138 135 130 126 127 127 126 124 122 119 113 106 96 90 87 90 96 105 110 108
33 131 153 144 126 104 94 92 91 87 85 90 81 79 74 72 69 67 69 72 77 80 79 76 75 74 75 74 70 64 55 48 42 37 30 23 18 17 15 29 82 106 101 109 111 110 118 126 127 124 117 102 89 103 119 136 139 138 139 140 141 141 141 141 141 139 136 133 129 131 130 126 123 120 115 108 99 84 74 72 78 85 95 101 103
81 146 144 141 135 127 113 98 92 87 91 97 89 81 67 58 56 53 50 49 50 57 66 70 73 73 75 76 73 69 60 53 45 39 35 26 19 18 17 34 109 128 115 131 123 122 127 126 128 131 130 113 97 99 112 135 140 138 138 138 139 141 144 143 141 140 139 137 135 136 132 127 124 117 110 99 87 75 66 66 76 82 93 98 101
111 121 139 155 152 141 117 96 79 80 138 126 114 79 43 30 25 26 30 31 33 33 41 50 61 68 73 77 79 77 71 63 53 45 40 34 25 20 18 36 119 138 143 161 137 135 138 135 141 146 144 128 127 126 116 137 142 141 140 138 140 142 144 141 140 141 140 138 140 140 132 128 124 115 104 92 80 72 64 65 76 84 91 95 97
113 109 146 160 160 153 125 105 60 7 315 313 327 352 351 354 355 356 3 5 15 18 22 27 38 55 66 76 82 83 81 74 63 52 45 40 32 23 18 27 122 170 176 175 151 144 155 151 151 153 153 147 153 151 130 141 145 144 141 141 142 144 143 140 140 141 140 138 143 142 133 129 122 110 99 89 80 73 67 69 80 87 91 93 95
68 67 170 182 191 190 160 118 26 349 337 337 335 339 336 332 341 353 355 350 354 357 7 9 16 35 60 74 84 87 85 78 69 61 52 46 38 30 27 30 55 189 180 177 162 150 165 161 157 163 165 170 174 161 147 148 148 145 142 143 144 144 142 139 141 141 144 141 146 144 133 128 119 108 99 91 81 75 71 76 85 91 93 94 94
58 47 64 55 243 214 208 227 315 339 336 335 335 336 333 333 340 345 347 346 346 343 347 348 350 356 28 64 84 89 83 74 67 65 62 54 45 39 39 42 50 180 182 182 172 158 169 173 174 178 183 188 183 167 157 151 149 148 145 145 146 145 141 140 139 142 146 143 150 147 134 128 120 110 102 93 84 76 75 80 87 91 95 95 94
60 53 59 62 61 156 226 262 309 330 327 332 340 342 339 339 331 317 312 322 340 335 329 330 333 333 340 355 34 71 75 71 64 70 70 63 57 50 46 46 54 140 179 187 180 172 180 183 184 192 199 195 187 171 161 155 151 151 148 148 148 145 143 141 141 147 147 147 156 148 135 133 124 116 106 95 85 80 79 81 86 91 93 93 92
61 68 87 89 87 92 82 298 305 314 323 337 346 351 343 322 289 277 273 282 310 313 308 314 320 325 326 328 339 11 54 67 68 80 81 74 69 59 55 60 69 125 166 179 178 180 184 182 185 197 202 194 190 170 160 157 154 151 149 149 149 147 145 143 144 147 147 156 162 147 140 139 130 123 113 101 91 85 82 82 85 90 92 93 92
108 121 136 130 130 153 193 247 287 314 327 333 334 336 323 306 282 267 261 263 271 267 253 269 291 302 303 303 300 304 298 66 72 90 94 83 80 72 70 83 99 132 156 168 174 180 180 180 189 196 194 185 179 166 160 158 157 153 151 150 150 151 148 147 148 151 160 166 161 148 147 146 137 130 120 110 100 90 84 83 83 85 89 93 93
146 141 143 139 142 183 226 267 307 316 321 323 316 304 296 291 281 271 261 256 245 228 213 219 238 253 270 283 281 284 284 348 58 81 86 64 64 72 84 109 120 140 156 163 170 175 171 176 185 187 183 171 164 162 159 159 160 156 152 150 151 152 148 148 150 161 167 160 154 153 155 151 146 137 129 123 111 100 91 85 81 83 86 89 92
144 125 116 118 128 230 259 295 315 312 319 320 301 287 272 264 270 275 270 260 241 222 212 215 229 235 247 274 285 289 299 355 44 67 81 62 51 48 55 113 133 143 154 158 165 169 169 174 175 171 170 158 157 161 157 161 163 158 155 152 154 152 149 150 154 169 162 153 159 160 160 158 153 145 138 138 126 113 103 92 86 86 85 87 90
115 57 38 59 25 303 309 319 318 314 320 312 290 280 265 262 276 284 278 261 240 223 217 220 230 240 245 257 275 287 306 360 46 61 82 84 70 56 39 49 132 144 150 154 159 165 171 172 167 160 159 150 152 164 161 165 165 162 161 157 157 154 156 157 158 171 161 158 167 161 163 164 160 155 148 151 147 133 119 104 97 92 88 88 90
84 23 1 15 351 328 331 329 322 316 317 312 291 278 270 276 290 290 285 261 236 221 219 222 228 241 244 245 259 278 292 284 142 93 102 135 105 86 66 46 69 142 146 150 156 167 172 167 165 158 152 147 150 168 169 169 166 165 166 163 159 156 163 161 161 170 163 162 163 161 169 170 168 165 157 160 162 154 142 123 115 105 96 93 92
50 25 358 1 344 336 335 328 323 315 311 309 297 288 288 293 298 296 293 266 234 219 219 225 231 238 242 244 254 262 260 240 215 160 165 183 165 99 79 74 80 152 151 156 160 171 175 169 167 158 154 153 153 172 175 173 169 168 168 167 165 163 168 165 172 171 161 163 161 165 176 176 177 172 164 167 170 173 168 152 138 128 113 105 100
44 5 350 354 343 337 331 326 320 314 312 308 305 303 308 309 307 306 299 270 237 225 224 229 234 238 239 243 244 242 240 232 227 213 201 193 180 192 83 84 139 173 168 168 169 173 175 172 168 160 163 164 164 177 179 177 172 171 168 170 172 172 174 168 182 172 160 170 167 170 180 180 184 176 173 174 179 185 182 178 165 162 151 130 116
46 345 344 346 341 334 328 325 319 322 325 318 315 312 315 317 314 313 306 273 243 236 234 231 233 234 235 239 237 234 236 228 228 236 238 227 214 210 178 165 208 189 183 181 179 178 173 172 170 166 171 170 169 175 182 181 176 175 169 173 175 176 180 170 181 175 168 179 174 175 181 182 187 182 181 182 188 194 192 192 182 189 186 174 155
10 344 334 334 337 334 329 324 321 342 349 329 321 316 317 326 323 323 322 302 261 250 241 230 227 227 230 232 232 233 239 238 232 235 246 253 240 221 202 203 215 193 190 195 192 187 178 178 176 171 177 180 177 175 182 184 181 180 173 175 177 178 183 175 184 184 182 186 176 177 182 184 190 188 189 189 196 201 203 204 195 207 203 197 191
350 341 332 334 337 337 343 336 343 13 3 326 316 323 327 335 332 331 336 332 306 266 247 231 221 222 228 225 225 232 242 246 242 237 242 248 238 227 213 211 224 202 195 202 204 198 190 191 185 178 183 187 189 184 184 186 185 183 179 179 179 180 183 180 185 189 194 190 176 179 182 186 193 192 196 196 200 205 208 214 215 223 218 212 206
343 341 341 346 345 344 356 360 30 33 351 333 328 337 332 336 339 340 344 338 331 298 258 238 227 227 232 230 231 236 244 247 247 246 245 243 237 231 214 212 228 217 207 210 211 207 203 205 197 188 189 191 198 198 193 189 188 185 183 184 182 184 185 186 187 190 198 191 182 186 182 189 196 196 202 202 202 207 211 219 229 234 231 224 218
348 352 4 11 1 354 11 22 35 31 1 357 353 352 347 350 352 349 350 344 333 305 270 249 238 235 237 238 240 242 248 251 249 247 247 246 233 225 213 211 225 223 220 219 216 213 212 213 209 203 199 197 202 208 206 194 192 189 186 188 189 190 189 190 191 197 202 191 190 195 188 192 197 200 205 205 206 209 215 223 234 238 234 231 230
3 8 21 27 27 27 40 32 25 20 6 8 5 360 1 360 0 359 357 348 327 299 277 260 249 244 243 243 247 247 248 251 248 241 240 243 233 227 223 220 225 225 226 226 222 219 217 217 216 214 209 205 206 213 215 201 195 193 190 192 195 195 194 195 195 203 206 193 197 203 198 199 198 203 207 207 210 211 220 226 232 236 233 233 237
17 19 31 47 66 62 60 53 34 18 3 10 7 360 6 3 3 5 355 346 327 304 287 272 259 253 253 251 252 254 254 252 244 234 234 238 238 238 239 236 232 227 224 225 227 224 218 218 217 217 215 212 210 213 217 208 200 198 196 195 197 198 197 200 200 207 210 197 200 206 206 207 203 205 207 209 214 215 222 227 232 234 233 237 243
33 31 37 80 99 84 72 75 62 32 11 19 13 2 9 8 8 6 357 354 338 315 298 278 260 253 264 265 257 255 258 258 249 238 238 243 244 245 248 245 239 233 226 219 222 225 221 220 217 218 217 215 215 214 213 207 203 202 202 201 200 202 199 201 203 209 214 202 203 210 209 210 210 211 210 211 215 218 222 226 231 232 233 238 245
39 47 45 111 122 128 127 97 97 87 46 36 23 7 8 10 11 9 2 355 344 333 317 292 277 268 268 267 263 251 237 240 246 246 245 251 251 251 252 248 242 236 230 220 215 221 224 224 220 219 218 215 212 209 204 201 205 203 205 208 207 206 203 202 203 209 216 206 206 216 216 215 215 216 217 217 218 221 224 226 229 232 235 240 247
20 37 102 129 129 137 140 124 123 121 72 55 38 20 15 12 8 7 2 352 355 352 342 326 305 298 288 278 276 268 241 229 234 238 238 245 251 253 253 249 244 236 232 225 216 220 226 225 222 220 218 215 208 200 198 200 206 206 205 211 213 211 208 206 204 211 218 209 209 220 223 223 221 221 222 223 224 225 227 228 230 233 237 243 251
353 3 127 120 123 128 136 133 128 126 70 68 64 47 25 12 359 2 360 351 5 359 356 3 334 319 308 294 294 291 276 260 245 236 231 234 245 252 254 250 241 232 230 226 220 225 227 225 225 222 215 214 210 199 200 210 214 213 208 208 211 213 216 213 203 212 222 213 214 224 227 229 228 226 227 227 228 230 232 234 235 238 242 248 256
16 93 118 112 122 123 130 124 113 109 80 73 67 55 29 15 353 359 2 349 0 2 358 6 346 325 305 299 308 304 290 286 279 261 247 243 247 247 252 250 234 225 224 224 225 225 223 225 227 224 214 209 210 206 207 219 224 221 214 210 209 212 219 220 209 212 222 215 217 228 229 230 230 229 231 232 231 232 235 238 242 245 249 254 260
52 67 91 108 118 114 121 110 103 109 102 97 75 58 40 29 352 358 6 348 354 359 354 357 346 330 311 312 316 309 301 300 297 287 278 266 256 244 240 234 220 215 218 222 226 224 218 220 224 223 217 212 213 215 212 213 228 226 219 218 216 216 220 222 218 215 221 220 220 229 232 231 230 230 232 233 234 235 237 240 244 249 253 257 261
45 43 67 102 108 105 109 99 98 104 107 114 108 85 60 44 6 8 12 350 356 358 353 357 349 340 336 327 317 312 311 311 303 293 287 274 265 259 249 237 222 213 215 219 220 222 218 215 218 217 217 217 213 220 223 214 222 226 220 222 223 222 223 223 222 219 222 226 224 229 235 234 231 231 232 234 235 236 239 242 245 250 254 257 258
32 37 53 89 104 102 102 100 100 101 103 110 103 94 80 60 44 30 24 3 5 2 358 2 354 350 353 337 318 309 309 311 303 294 291 281 275 280 277 264 251 227 218 218 219 226 230 226 221 215 217 219 211 212 226 222 217 222 223 224 224 224 224 222 223 223 225 232 233 233 237 239 236 233 233 234 237 239 242 244 246 250 252 256 257
27 30 39 76 99 98 100 100 99 102 105 103 98 94 86 69 52 35 27 20 19 16 8 5 2 0 1 349 327 319 315 308 298 292 288 280 281 288 284 273 268 251 230 225 224 230 239 238 223 215 217 219 215 207 212 219 214 215 225 229 229 227 225 223 222 221 223 233 242 243 242 244 241 237 235 234 235 238 242 245 247 249 249 251 252
20 24 27 54 86 97 102 102 96 99 102 101 103 98 91 84 70 61 48 40 39 38 29 12 14 17 13 8 351 343 337 323 313 303 290 280 279 279 276 270 265 260 245 234 231 233 237 236 226 221 218 218 222 211 208 217 210 209 221 225 230 232 231 232 230 225 222 225 234 241 242 244 244 240 237 236 235 234 238 240 242 244 244 244 245
21 24 28 37 62 91 100 98 95 95 100 102 104 103 101 98 85 78 73 64 52 44 42 31 31 30 22 23 16 6 357 348 342 328 312 295 281 278 282 281 271 264 254 239 235 234 231 231 233 231 222 217 221 219 222 224 206 209 223 224 226 230 231 233 234 234 231 229 231 235 237 238 242 244 241 237 236 235 235 234 235 238 238 239 241
22 22 29 34 40 65 88 88 89 89 95 102 107 112 109 104 100 88 81 79 69 53 44 39 40 35 25 26 26 24 17 9 4 351 340 327 308 301 298 289 275 270 268 252 241 235 229 229 232 232 225 218 218 228 238 234 214 212 218 225 229 228 229 230 231 236 238 239 240 240 237 231 229 239 244 242 239 237 236 235 234 235 236 238 239
16 17 26 28 28 41 56 73 86 84 83 93 101 108 108 105 107 98 89 85 76 65 54 44 40 33 26 25 25 28 25 20 17 8 357 349 342 334 322 304 277 271 277 266 249 238 234 233 229 227 229 225 225 240 247 244 238 226 214 217 227 228 230 230 229 235 239 242 245 245 244 238 230 229 233 238 243 242 240 239 237 237 237 237 237
4 9 18 18 21 31 33 47 72 79 74 85 91 95 104 106 108 102 95 89 81 76 64 50 44 34 26 24 23 26 25 24 23 19 17 12 3 356 356 350 301 277 283 274 256 243 238 235 230 228 234 233 231 239 244 245 251 249 231 219 224 230 232 233 231 234 238 242 246 246 245 247 248 245 236 235 242 243 240 241 241 240 239 239 239
351 359 5 10 19 27 30 38 52 71 73 78 86 88 94 96 96 92 88 84 77 75 67 53 49 40 28 24 21 20 22 24 22 21 24 24 19 15 15 10 346 300 286 281 269 257 245 239 237 234 237 241 237 235 237 240 245 250 251 240 235 236 235 235 233 233 239 240 241 244 245 248 254 257 247 237 240 241 240 239 239 240 241 242 241
326 340 349 1 14 24 32 37 47 63 72 78 80 79 80 78 77 75 74 73 68 66 62 51 43 33 24 22 21 16 16 18 18 18 21 25 25 23 23 19 11 354 318 305 294 280 267 254 250 246 246 250 250 246 244 248 252 249 250 250 246 240 235 235 233 233 238 236 236 247 254 253 252 251 248 244 243 244 243 240 238 239 243 245 243
279 307 327 345 358 12 28 35 45 53 65 80 80 77 74 69 67 67 67 63 58 54 47 40 32 24 19 19 18 13 9 9 10 11 11 15 19 20 25 25 21 19 4 342 318 294 279 267 261 258 254 253 255 257 257 260 264 258 248 245 245 240 234 232 232 232 236 237 238 245 252 255 251 244 243 242 236 235 239 241 240 238 239 244 245
254 273 294 316 334 345 9 26 40 50 56 71 77 80 75 68 63 59 57 50 43 39 32 30 26 20 19 18 15 9 5 3 2 4 2 1 2 6 12 15 16 19 16 6 350 331 309 288 277 268 258 255 255 258 261 261 264 264 252 242 239 239 234 232 235 234 236 239 238 239 244 250 251 245 244 245 238 232 236 242 244 239 237 241 245
247 250 267 282 295 310 328 355 15 26 34 53 67 76 76 72 63 53 50 42 34 29 23 22 21 19 17 16 13 7 3 360 359 360 359 355 351 351 351 355 359 2 4 3 1 0 353 337 319 300 278 266 261 260 259 257 261 264 257 243 237 238 234 233 235 232 233 236 233 235 245 250 250 248 246 246 244 239 236 239 240 240 241 241 243
248 244 249 257 262 276 285 287 293 304 331 350 16 55 69 64 57 48 42 35 28 22 18 16 15 14 12 10 8 5 2 358 358 359 357 354 349 345 342 341 342 343 344 344 345 349 351 350 350 341 322 298 279 268 261 257 258 262 262 250 240 239 235 234 236 231 232 236 234 237 246 249 247 249 249 245 242 242 243 245 240 236 240 241 239
248 245 245 245 246 257 262 261 265 265 267 260 269 293 329 13 32 34 30 25 21 16 13 11 8 5 5 4 3 1 1 357 355 357 355 351 347 343 341 336 334 333 333 332 329 328 329 332 339 345 348 346 319 291 274 264 260 263 268 261 248 243 238 236 237 233 233 236 236 236 241 245 243 244 250 247 243 246 248 250 244 237 239 240 234
246 245 243 239 236 243 249 252 256 258 260 256 255 260 275 299 328 357 8 7 5 5 3 2 360 359 358 357 358 357 357 355 352 355 353 348 344 342 340 336 332 328 327 326 323 319 315 313 317 321 329 344 346 332 313 288 275 269 271 273 264 253 243 237 234 230 231 234 236 237 238 244 244 239 244 249 248 251 247 243 244 248 250 245 238
241 243 243 241 236 236 241 247 249 253 260 264 264 263 267 273 282 302 320 332 339 343 346 347 347 349 350 348 350 350 349 349 349 350 349 346 342 339 338 336 331 326 322 320 317 313 309 307 305 302 305 315 322 330 335 325 308 290 276 276 276 265 251 242 235 231 231 233 237 241 242 245 247 246 250 249 246 251 253 250 252 257 261 262 263
237 240 242 243 242 241 241 243 245 249 256 262 266 268 271 274 275 276 280 291 304 313 322 328 331 334 338 339 341 342 342 343 343 343 341 339 338 336 335 335 333 327 322 317 312 308 305 304 302 298 297 298 298 302 310 317 321 319 304 291 286 276 264 253 244 238 236 235 237 242 244 245 247 249 250 249 247 249 252 253 255 257 259 263 266
232 235 241 245 247 248 247 244 244 245 251 258 263 266 270 275 277 277 277 277 278 287 296 303 311 317 324 328 331 334 335 336 336 336 336 335 336 336 334 334 334 331 328 322 312 306 304 302 299 297 294 291 289 286 286 291 296 302 307 302 292 285 279 272 261 252 248 245 244 245 246 247 249 250 249 251 251 248 248 250 254 259 264 266 267
233 225 229 241 247 249 249 249 247 245 247 251 256 262 267 270 273 277 279 279 276 277 280 285 292 299 307 314 319 323 326 328 329 329 331 332 332 332 332 332 332 331 331 328 318 309 305 302 299 296 292 289 287 282 278 277 277 278 280 281 281 280 281 279 275 271 266 262 257 251 248 249 250 250 249 250 249 249 255 260 261 264 269 271 272
255 243 227 228 240 244 245 246 246 247 247 248 251 255 262 267 270 273 276 278 278 276 276 277 280 285 291 298 306 313 317 320 321 322 322 324 324 323 323 323 326 328 330 328 322 314 307 301 300 300 295 290 286 283 279 275 271 269 267 267 269 270 273 276 275 275 273 271 268 261 256 257 257 255 253 252 252 255 261 265 267 269 271 273 274
258 264 250 235 235 238 240 242 244 246 246 247 249 252 256 261 267 270 272 275 276 275 275 275 275 277 280 285 291 298 306 310 313 315 316 316 317 318 318 318 319 321 324 325 320 314 309 303 301 300 298 295 289 284 280 277 274 271 268 265 263 264 266 268 269 269 270 272 272 271 270 269 267 265 263 262 261 263 264 264 267 270 272 274 277
Height
3147 3148 3148 3148 3148 3148 3149 3149 3149 3149 3148 3147 3146 3146 3146 3146 3146 3146 3146 3146 3146 3146 3146 3146 3147 3147 3147 3147 3148 3148 3149 3149 3149 3149 3149 3149 3149 3149 3149 3149 3149 3149 3149 3149 3150 3150 3151 3152 3152 3152 3152 3153 3153 3153 3154 3154 3154 3154 3155 3156 3157 3158 3158 3159 3159 3160 3161 3161 3162 3162 3162 3163 3163 3163 3163 3164 3164 3163 3163 3163 3162 3162 3161 3161 3161
3147 3147 3147 3148 3148 3147 3148 3149 3149 3148 3148 3147 3146 3145 3145 3145 3146 3146 3146 3147 3147 3147 3147 3147 3147 3147 3147 3147 3148 3148 3148 3148 3149 3149 3149 3149 3149 3149 3149 3149 3149 3149 3149 3150 3150 3151 3151 3152 3152 3153 3153 3153 3153 3154 3154 3154 3154 3155 3155 3156 3157 3158 3159 3159 3160 3161 3161 3162 3163 3163 3163 3164 3164 3164 3164 3164 3164 3164 3163 3163 3162 3162 3162 3161 3161
3146 3146 3146 3147 3147 3147 3147 3148 3148 3148 3147 3146 3146 3145 3145 3145 3146 3147 3147 3147 3147 3147 3147 3147 3147 3147 3147 3147 3148 3148 3148 3148 3148 3148 3148 3148 3148 3148 3148 3149 3149 3149 3149 3150 3150 3151 3151 3152 3153 3153 3153 3153 3154 3154 3154 3154 3155 3155 3156 3157 3158 3158 3159 3160 3161 3161 3162 3163 3163 3164 3164 3164 3165 3165 3165 3165 3165 3164 3164 3163 3163 3162 3162 3162 3161
3145 3145 3146 3147 3147 3147 3146 3147 3147 3147 3147 3146 3145 3145 3146 3147 3147 3148 3148 3148 3148 3148 3147 3147 3147 3147 3147 3147 3147 3147 3147 3147 3147 3147 3148 3148 3148 3148 3148 3148 3148 3149 3149 3150 3151 3151 3152 3152 3153 3153 3154 3154 3154 3154 3155 3155 3155 3156 3157 3157 3158 3159 3160 3160 3161 3162 3163 3163 3164 3164 3165 3165 3165 3166 3166 3166 3165 3165 3164 3164 3163 3163 3163 3162 3162
3144 3146 3147 3147 3147 3147 3146 3146 3146 3147 3147 3147 3147 3148 3148 3149 3149 3149 3149 3148 3148 3147 3147 3147 3147 3147 3147 3147 3147 3147 3147 3147 3147 3147 3147 3147 3147 3147 3147 3148 3148 3148 3149 3150 3151 3151 3152 3153 3153 3153 3154 3154 3154 3155 3155 3155 3156 3157 3157 3158 3158 3159 3160 3161 3162 3162 3163 3164 3165 3165 3165 3166 3166 3166 3166 3166 3166 3165 3165 3164 3164 3164 3163 3163 3163
3143 3145 3147 3147 3147 3146 3146 3146 3146 3147 3148 3149 3149 3150 3150 3150 3150 3149 3148 3148 3148 3147 3147 3147 3146 3146 3146 3146 3146 3146 3146 3146 3146 3146 3146 3146 3146 3146 3147 3147 3148 3148 3149 3150 3151 3151 3152 3153 3154 3154 3154 3155 3155 3155 3156 3156 3156 3157 3158 3158 3159 3160 3161 3161 3162 3163 3164 3164 3165 3165 3166 3167 3167 3167 3167 3167 3167 3166 3165 3165 3165 3165 3164 3164 3164
3143 3144 3145 3145 3146 3146 3147 3147 3148 3149 3149 3150 3150 3150 3149 3149 3149 3148 3148 3147 3147 3147 3147 3147 3146 3146 3146 3146 3146 3146 3146 3146 3146 3146 3146 3146 3146 3146 3146 3147 3148 3148 3149 3150 3150 3151 3152 3153 3154 3155 3155 3155 3156 3156 3156 3156 3157 3157 3158 3159 3159 3160 3161 3162 3163 3163 3164 3165 3165 3166 3166 3167 3168 3168 3168 3168 3167 3167 3166 3166 3166 3165 3165 3165 3165
3143 3143 3144 3144 3145 3146 3148 3149 3150 3150 3150 3149 3149 3148 3148 3148 3147 3147 3146 3146 3147 3147 3147 3147 3147 3146 3146 3146 3146 3146 3146 3146 3146 3146 3146 3145 3145 3145 3146 3146 3147 3148 3149 3150 3150 3151 3152 3153 3154 3155 3155 3156 3156 3156 3157 3157 3157 3158 3158 3159 3160 3161 3161 3162 3163 3164 3164 3165 3166 3166 3167 3168 3168 3169 3169 3169 3168 3168 3167 3167 3167 3166 3166 3166 3166
3142 3143 3144 3144 3145 3146 3148 3150 3150 3150 3149 3148 3148 3147 3146 3146 3145 3145 3145 3145 3146 3146 3146 3146 3146 3146 3146 3146 3146 3146 3146 3146 3146 3146 3146 3146 3145 3145 3145 3146 3146 3147 3148 3149 3151 3151 3152 3153 3154 3155 3155 3156 3156 3157 3157 3158 3158 3158 3159 3160 3160 3161 3162 3162 3163 3164 3165 3165 3166 3167 3168 3169 3169 3169 3169 3170 3169 3169 3169 3168 3168 3167 3167 3167 3167
3142 3142 3144 3145 3146 3147 3148 3149 3149 3148 3148 3147 3146 3145 3145 3144 3143 3143 3143 3144 3144 3144 3144 3145 3145 3145 3145 3145 3145 3145 3146 3146 3146 3146 3146 3146 3145 3145 3145 3145 3146 3146 3148 3149 3150 3151 3152 3153 3153 3155 3155 3156 3156 3157 3158 3158 3159 3159 3160 3160 3161 3162 3162 3162 3163 3164 3165 3165 3166 3167 3169 3169 3169 3169 3170 3170 3170 3170 3170 3170 3169 3169 3168 3168 3168
3142 3143 3144 3146 3147 3147 3148 3148 3148 3147 3147 3146 3145 3144 3143 3143 3142 3142 3142 3142 3142 3143 3143 3143 3144 3143 3143 3144 3144 3145 3145 3146 3146 3146 3146 3146 3146 3145 3145 3145 3145 3146 3147 3148 3149 3151 3152 3153 3154 3154 3155 3156 3156 3157 3158 3159 3159 3160 3160 3161 3162 3162 3163 3163 3163 3164 3164 3165 3166 3168 3169 3170 3170 3170 3170 3171 3171 3171 3171 3171 3170 3170 3170 3169 3169
3143 3144 3145 3146 3146 3146 3146 3147 3147 3146 3146 3145 3144 3143 3142 3142 3141 3141 3141 3141 3141 3142 3142 3142 3142 3142 3142 3143 3144 3145 3145 3146 3146 3146 3146 3146 3146 3146 3145 3145 3144 3145 3146 3148 3149 3151 3152 3153 3154 3155 3155 3156 3156 3157 3158 3159 3160 3160 3161 3161 3162 3162 3163 3163 3164 3164 3165 3165 3167 3168 3169 3170 3171 3171 3171 3172 3172 3172 3172 3171 3171 3171 3171 3171 3171
3145 3145 3145 3145 3145 3145 3145 3146 3146 3144 3144 3144 3143 3142 3141 3141 3141 3140 3140 3140 3141 3141 3141 3141 3141 3141 3141 3142 3143 3144 3145 3146 3146 3146 3146 3146 3146 3146 3146 3146 3145 3145 3147 3148 3149 3150 3151 3152 3154 3155 3156 3156 3157 3158 3158 3159 3160 3161 3161 3161 3162 3162 3163 3163 3163 3165 3165 3166 3167 3169 3170 3170 3171 3171 3171 3172 3173 3173 3173 3172 3172 3172 3172 3172 3172
3145 3145 3145 3145 3144 3144 3144 3144 3144 3143 3142 3142 3142 3141 3140 3140 3140 3139 3139 3139 3140 3140 3140 3140 3140 3140 3141 3141 3143 3144 3145 3146 3146 3146 3146 3146 3146 3146 3146 3147 3147 3147 3147 3148 3149 3150 3151 3152 3153 3155 3155 3156 3157 3158 3158 3159 3160 3161 3162 3162 3162 3163 3163 3164 3164 3164 3165 3166 3168 3169 3170 3171 3171 3172 3172 3172 3173 3173 3173 3173 3173 3173 3173 3173 3173
3145 3144 3143 3143 3143 3142 3142 3142 3142 3141 3140 3140 3140 3140 3139 3139 3139 3139 3139 3139 3139 3139 3139 3140 3140 3140 3140 3141 3143 3144 3144 3145 3145 3146 3145 3146 3146 3146 3146 3147 3147 3147 3148 3149 3149 3150 3151 3152 3153 3154 3155 3156 3156 3157 3158 3159 3160 3161 3162 3163 3163 3163 3164 3164 3165 3165 3165 3167 3168 3170 3170 3171 3172 3172 3172 3173 3173 3174 3174 3174 3174 3174 3174 3174 3174
3144 3143 3143 3142 3142 3141 3141 3140 3140 3139 3139 3139 3139 3138 3138 3138 3138 3138 3138 3138 3138 3138 3138 3139 3139 3140 3140 3141 3143 3143 3144 3144 3145 3145 3145 3146 3146 3146 3147 3147 3147 3148 3148 3149 3149 3150 3151 3152 3152 3153 3154 3155 3156 3157 3158 3159 3159 3160 3161 3162 3163 3164 3164 3165 3166 3166 3166 3167 3168 3169 3170 3171 3172 3173 3173 3173 3174 3174 3174 3175 3175 3175 3175 3175 3175
3144 3143 3142 3142 3141 3140 3139 3139 3139 3139 3138 3138 3138 3138 3138 3138 3138 3138 3138 3138 3138 3138 3138 3138 3139 3139 3140 3141 3142 3143 3143 3144 3145 3145 3145 3146 3146 3146 3147 3147 3147 3148 3149 3149 3149 3149 3150 3151 3152 3153 3154 3154 3156 3157 3158 3158 3159 3160 3161 3162 3163 3164 3165 3165 3166 3166 3166 3167 3168 3169 3170 3171 3172 3173 3173 3174 3174 3175 3175 3175 3175 3175 3175 3176 3176
3143 3142 3142 3141 3140 3139 3138 3138 3138 3139 3138 3138 3138 3138 3138 3138 3138 3138 3138 3137 3137 3137 3138 3138 3138 3139 3140 3141 3142 3143 3143 3144 3145 3145 3145 3145 3146 3146 3146 3146 3147 3147 3148 3149 3150 3149 3150 3150 3151 3152 3153 3154 3155 3156 3157 3158 3159 3160 3161 3161 3163 3164 3165 3165 3166 3166 3166 3167 3168 3169 3170 3172 3172 3173 3174 3174 3175 3175 3175 3175 3175 3176 3176 3176 3176
3141 3140 3140 3139 3138 3138 3137 3137 3138 3138 3139 3138 3138 3138 3138 3138 3138 3137 3137 3137 3137 3137 3138 3138 3138 3139 3140 3141 3142 3143 3143 3144 3145 3145 3145 3145 3145 3145 3146 3146 3147 3147 3148 3149 3150 3150 3150 3150 3151 3151 3152 3153 3154 3155 3156 3157 3158 3159 3160 3161 3162 3163 3164 3165 3165 3167 3167 3167 3169 3169 3170 3172 3172 3173 3174 3174 3175 3175 3176 3176 3176 3176 3176 3176 3177
3138 3138 3137 3137 3136 3136 3137 3137 3137 3138 3138 3138 3138 3138 3138 3137 3137 3137 3137 3137 3137 3137 3138 3138 3138 3139 3140 3141 3142 3143 3143 3144 3144 3145 3145 3145 3145 3145 3146 3146 3147 3147 3148 3148 3149 3150 3150 3150 3151 3151 3151 3152 3153 3154 3155 3156 3157 3158 3160 3161 3162 3163 3164 3164 3165 3166 3166 3168 3169 3169 3170 3171 3172 3173 3174 3175 3175 3175 3176 3176 3176 3177 3177 3177 3177
3137 3136 3135 3135 3135 3135 3136 3136 3137 3137 3137 3138 3138 3138 3138 3137 3137 3137 3137 3137 3137 3137 3137 3138 3138 3139 3140 3141 3142 3143 3143 3144 3144 3145 3145 3145 3145 3145 3146 3146 3147 3147 3148 3148 3149 3150 3150 3150 3151 3151 3151 3152 3152 3153 3154 3156 3157 3158 3159 3160 3161 3162 3163 3163 3164 3165 3166 3168 3169 3170 3171 3171 3172 3173 3174 3175 3175 3175 3176 3176 3176 3177 3177 3177 3178
3136 3135 3135 3135 3135 3135 3135 3136 3136 3136 3136 3137 3137 3137 3137 3137 3137 3136 3136 3136 3136 3136 3137 3137 3138 3138 3139 3141 3142 3142 3143 3143 3144 3144 3144 3144 3145 3145 3145 3146 3146 3147 3147 3148 3149 3150 3150 3151 3151 3151 3151 3152 3152 3153 3154 3155 3156 3157 3158 3160 3161 3162 3163 3163 3164 3165 3166 3168 3169 3170 3171 3171 3172 3173 3174 3174 3175 3175 3176 3176 3176 3177 3177 3178 3178
3135 3135 3135 3135 3135 3135 3135 3136 3136 3136 3136 3136 3137 3137 3137 3136 3136 3136 3136 3136 3136 3136 3137 3137 3138 3138 3138 3140 3141 3141 3142 3142 3143 3144 3144 3144 3144 3145 3145 3145 3146 3146 3147 3147 3149 3149 3150 3150 3150 3150 3151 3151 3152 3153 3153 3154 3156 3157 3158 3159 3160 3161 3162 3163 3164 3165 3166 3168 3169 3170 3171 3172 3172 3173 3174 3174 3175 3175 3176 3176 3176 3177 3177 3177 3178
3134 3134 3135 3135 3135 3135 3136 3136 3136 3136 3136 3136 3137 3136 3136 3136 3136 3136 3135 3136 3136 3136 3137 3137 3138 3138 3138 3139 3140 3141 3141 3141 3142 3143 3143 3143 3144 3144 3144 3144 3145 3145 3146 3147 3148 3149 3149 3149 3150 3150 3150 3151 3152 3152 3153 3154 3155 3157 3158 3159 3160 3161 3162 3162 3164 3165 3165 3168 3169 3169 3171 3171 3172 3173 3173 3174 3174 3175 3175 3176 3176 3176 3177 3177 3178
3134 3135 3135 3135 3135 3136 3136 3136 3137 3137 3136 3137 3137 3136 3136 3136 3136 3135 3136 3136 3136 3137 3137 3137 3138 3138 3138 3138 3138 3139 3140 3140 3141 3142 3142 3142 3142 3142 3143 3143 3143 3144 3145 3146 3147 3148 3148 3149 3149 3150 3150 3151 3151 3152 3153 3154 3156 3157 3158 3159 3160 3161 3162 3162 3163 3164 3165 3167 3168 3169 3170 3171 3172 3173 3173 3174 3174 3174 3175 3175 3175 3176 3176 3177 3177
3134 3135 3135 3135 3135 3135 3136 3136 3136 3136 3136 3137 3137 3136 3136 3136 3136 3136 3136 3136 3136 3137 3137 3137 3137 3138 3138 3138 3137 3138 3138 3140 3141 3142 3142 3141 3141 3141 3141 3141 3142 3143 3144 3145 3146 3147 3148 3149 3149 3149 3150 3151 3151 3152 3153 3155 3156 3157 3158 3159 3161 3162 3162 3162 3163 3164 3165 3166 3168 3168 3170 3170 3171 3172 3172 3173 3173 3174 3174 3174 3175 3175 3176 3176 3177
3134 3135 3135 3135 3135 3135 3136 3136 3136 3136 3136 3136 3137 3137 3136 3136 3136 3136 3136 3136 3137 3137 3137 3137 3137 3137 3137 3137 3138 3138 3137 3139 3141 3141 3140 3140 3140 3140 3140 3140 3140 3142 3143 3144 3145 3146 3147 3148 3149 3149 3149 3150 3151 3152 3153 3155 3156 3157 3158 3159 3160 3162 3162 3162 3163 3164 3164 3166 3167 3167 3168 3169 3170 3171 3171 3172 3172 3173 3173 3174 3174 3175 3175 3176 3176
3134 3134 3134 3135 3135 3135 3135 3135 3136 3136 3136 3136 3136 3137 3137 3137 3136 3136 3136 3136 3137 3137 3137 3137 3137 3137 3137 3138 3139 3139 3138 3139 3140 3140 3140 3139 3139 3139 3139 3138 3139 3140 3142 3143 3144 3145 3146 3147 3148 3148 3149 3150 3150 3151 3152 3154 3156 3157 3158 3159 3160 3161 3162 3162 3163 3164 3164 3165 3166 3167 3167 3168 3169 3169 3170 3171 3171 3172 3172 3173 3173 3174 3174 3175 3175
3133 3134 3134 3134 3135 3135 3135 3135 3135 3135 3136 3136 3136 3136 3137 3137 3136 3136 3136 3135 3136 3136 3137 3137 3137 3137 3137 3138 3138 3138 3138 3138 3139 3140 3140 3139 3138 3138 3137 3137 3137 3138 3140 3142 3143 3144 3145 3146 3147 3148 3148 3149 3150 3151 3151 3153 3156 3157 3158 3159 3160 3161 3162 3162 3163 3163 3164 3164 3165 3166 3166 3167 3167 3168 3169 3169 3170 3171 3171 3172 3173 3173 3174 3174 3175
3133 3133 3134 3134 3134 3135 3135 3135 3135 3135 3136 3136 3136 3136 3136 3137 3137 3137 3136 3136 3136 3137 3137 3137 3136 3136 3137 3138 3137 3138 3138 3138 3138 3138 3139 3138 3138 3138 3137 3137 3137 3138 3139 3140 3142 3143 3144 3145 3146 3147 3148 3148 3148 3150 3151 3152 3154 3156 3157 3158 3159 3160 3161 3162 3163 3163 3164 3164 3164 3165 3165 3165 3166 3166 3167 3168 3169 3170 3170 3171 3172 3172 3173 3174 3174
3133 3133 3134 3134 3134 3134 3135 3135 3135 3135 3136 3136 3136 3136 3136 3137 3137 3137 3137 3137 3137 3136 3136 3137 3136 3136 3137 3137 3136 3137 3138 3137 3137 3137 3137 3137 3137 3138 3138 3138 3139 3139 3139 3140 3141 3142 3143 3144 3144 3145 3146 3147 3147 3148 3151 3152 3152 3154 3156 3157 3158 3158 3159 3161 3162 3163 3163 3163 3163 3164 3164 3164 3165 3165 3166 3167 3168 3169 3169 3170 3171 3171 3172 3173 3173
3133 3133 3134 3134 3134 3134 3134 3135 3135 3135 3135 3136 3136 3136 3136 3136 3136 3137 3137 3137 3137 3137 3137 3137 3137 3136 3136 3136 3136 3136 3136 3136 3136 3136 3136 3136 3137 3138 3138 3138 3139 3139 3139 3140 3141 3142 3143 3143 3144 3144 3145 3146 3147 3147 3149 3151 3150 3152 3155 3156 3156 3156 3157 3159 3160 3161 3162 3162 3162 3163 3163 3163 3163 3164 3165 3166 3167 3168 3168 3169 3170 3170 3171 3172 3172
3133 3133 3134 3134 3134 3134 3134 3135 3135 3135 3135 3135 3136 3136 3136 3136 3136 3136 3136 3137 3137 3137 3137 3137 3137 3136 3136 3136 3135 3135 3135 3135 3135 3135 3135 3136 3136 3136 3136 3136 3137 3138 3138 3139 3139 3140 3141 3142 3143 3143 3144 3146 3147 3147 3147 3149 3148 3150 3153 3154 3155 3156 3156 3158 3159 3160 3160 3161 3160 3160 3161 3161 3162 3163 3164 3165 3166 3166 3167 3168 3168 3169 3170 3170 3171
3133 3133 3133 3134 3134 3134 3134 3135 3135 3135 3135 3135 3136 3136 3136 3136 3136 3137 3137 3137 3137 3137 3137 3137 3137 3137 3137 3136 3136 3135 3134 3134 3134 3134 3134 3135 3135 3135 3134 3134 3135 3136 3137 3137 3137 3139 3140 3141 3141 3142 3143 3144 3146 3147 3147 3147 3146 3148 3152 3153 3154 3155 3155 3156 3158 3159 3159 3160 3158 3157 3158 3160 3161 3162 3163 3164 3164 3165 3166 3166 3167 3168 3168 3169 3170
3133 3133 3133 3134 3134 3134 3134 3134 3135 3135 3135 3135 3136 3136 3136 3136 3137 3137 3137 3137 3137 3137 3137 3137 3137 3137 3137 3136 3136 3135 3135 3134 3133 3133 3133 3133 3133 3133 3133 3133 3133 3134 3135 3136 3136 3137 3138 3139 3140 3141 3142 3142 3143 3145 3147 3147 3144 3144 3148 3151 3153 3153 3154 3155 3155 3157 3158 3159 3158 3157 3158 3158 3159 3161 3162 3162 3163 3163 3164 3165 3165 3166 3167 3168 3168
3134 3133 3133 3134 3134 3134 3134 3134 3134 3135 3135 3135 3136 3136 3136 3137 3137 3137 3137 3137 3137 3138 3137 3137 3137 3137 3137 3136 3136 3135 3135 3134 3134 3133 3132 3132 3132 3132 3132 3131 3132 3133 3134 3135 3135 3136 3136 3137 3138 3139 3141 3141 3143 3145 3146 3147 3146 3144 3144 3147 3150 3151 3152 3153 3154 3155 3157 3157 3157 3158 3158 3157 3155 3157 3158 3160 3161 3162 3162 3163 3163 3164 3165 3166 3167
3134 3134 3134 3134 3134 3134 3134 3134 3134 3134 3135 3135 3136 3136 3136 3137 3137 3137 3137 3137 3137 3137 3137 3137 3137 3137 3137 3136 3136 3136 3135 3135 3135 3134 3133 3132 3132 3132 3132 3131 3131 3132 3133 3134 3134 3135 3135 3136 3137 3138 3139 3140 3142 3143 3144 3145 3146 3146 3145 3145 3147 3149 3150 3151 3152 3153 3155 3156 3156 3157 3158 3158 3157 3157 3157 3158 3160 3161 3160 3161 3162 3163 3163 3164 3165
3134 3134 3134 3134 3134 3134 3134 3134 3134 3134 3134 3135 3135 3136 3136 3137 3137 3137 3137 3137 3137 3137 3137 3137 3137 3137 3137 3136 3136 3136 3135 3135 3135 3135 3134 3133 3132 3132 3132 3131 3132 3132 3133 3133 3134 3134 3135 3135 3136 3138 3139 3139 3140 3141 3142 3143 3144 3145 3146 3146 3146 3147 3148 3149 3150 3152 3153 3154 3155 3156 3156 3157 3159 3159 3158 3158 3159 3159 3159 3160 3160 3161 3162 3163 3163
3134 3134 3134 3134 3134 3134 3134 3134 3134 3134 3134 3134 3135 3135 3136 3136 3136 3136 3136 3137 3137 3137 3137 3137 3137 3137 3136 3136 3136 3136 3135 3135 3135 3135 3135 3134 3133 3133 3132 3132 3132 3132 3132 3132 3132 3133 3134 3134 3135 3136 3137 3138 3138 3139 3140 3141 3141 3143 3144 3145 3145 3146 3147 3148 3149 3151 3152 3153 3154 3154 3154 3156 3158 3158 3157 3158 3158 3159 3159 3159 3159 3159 3160 3161 3162
3134 3134 3134 3134 3134 3134 3134 3134 3134 3134 3134 3134 3135 3135 3135 3135 3136 3136 3136 3136 3136 3136 3136 3137 3137 3136 3136 3136 3136 3135 3135 3135 3135 3135 3135 3134 3134 3134 3133 3132 3132 3131 3131 3131 3131 3132 3133 3134 3134 3134 3135 3136 3137 3137 3138 3139 3140 3141 3142 3143 3144 3144 3145 3147 3148 3149 3150 3151 3152 3153 3153 3154 3156 3157 3156 3156 3157 3158 3158 3158 3157 3158 3158 3159 3159
3134 3134 3134 3134 3134 3134 3134 3134 3134 3134 3134 3134 3134 3134 3135 3135 3135 3135 3135 3135 3136 3136 3136 3136 3136 3136 3136 3136 3135 3135 3135 3134 3134 3134 3134 3134 3134 3134 3134 3133 3133 3132 3132 3132 3132 3132 3132 3132 3132 3133 3133 3134 3135 3136 3137 3137 3138 3139 3140 3140 3141 3142 3143 3145 3146 3147 3148 3148 3149 3151 3152 3152 3153 3154 3154 3154 3155 3156 3156 3156 3156 3156 3156 3157 3157
3133 3133 3133 3133 3133 3133 3133 3133 3133 3134 3134 3134 3134 3134 3134 3135 3135 3135 3135 3135 3135 3135 3136 3136 3136 3136 3135 3135 3135 3134 3134 3134 3134 3134 3133 3133 3133 3133 3133 3134 3134 3134 3133 3133 3133 3132 3132 3132 3131 3131 3131 3132 3133 3134 3134 3135 3136 3137 3137 3138 3138 3139 3141 3142 3143 3144 3145 3145 3145 3147 3148 3149 3150 3150 3151 3152 3152 3153 3154 3153 3153 3154 3154 3155 3156
3132 3132 3132 3132 3132 3133 3133 3133 3133 3133 3133 3133 3134 3134 3134 3134 3134 3134 3134 3134 3135 3135 3135 3135 3135 3135 3135 3135 3134 3134 3134 3134 3133 3133 3133 3133 3133 3133 3133 3133 3134 3134 3134 3133 3133 3133 3132 3132 3131 3131 3131 3131 3131 3131 3132 3133 3134 3134 3135 3135 3136 3137 3138 3139 3140 3141 3142 3142 3144 3145 3145 3146 3147 3148 3148 3149 3150 3150 3151 3151 3151 3151 3152 3152 3153
3131 3131 3131 3131 3131 3132 3132 3132 3132 3132 3133 3133 3133 3133 3133 3133 3133 3133 3134 3134 3134 3134 3134 3134 3134 3134 3134 3134 3134 3134 3133 3133 3133 3133 3132 3133 3133 3133 3133 3133 3133 3133 3133 3133 3133 3133 3132 3132 3132 3131 3131 3131 3131 3130 3130 3131 3132 3132 3132 3133 3133 3134 3135 3136 3137 3139 3139 3140 3143 3144 3144 3145 3145 3146 3146 3147 3147 3148 3149 3150 3149 3149 3150 3150 3150
3130 3130 3130 3130 3130 3131 3131 3131 3131 3132 3132 3132 3132 3132 3132 3132 3132 3133 3133 3133 3133 3134 3134 3134 3134 3134 3134 3134 3134 3133 3133 3133 3133 3133 3132 3132 3132 3132 3132 3132 3132 3132 3132 3132 3132 3132 3132 3131 3131 3131 3131 3131 3130 3130 3130 3129 3130 3130 3130 3131 3131 3132 3132 3133 3135 3137 3137 3138 3140 3141 3142 3143 3143 3144 3144 3145 3145 3147 3148 3148 3147 3147 3146 3147 3148
3128 3128 3128 3128 3129 3129 3130 3130 3130 3131 3131 3132 3132 3132 3132 3131 3131 3132 3132 3132 3132 3133 3133 3133 3133 3134 3134 3134 3133 3133 3133 3133 3132 3132 3132 3132 3132 3131 3131 3131 3132 3131 3131 3131 3131 3131 3131 3130 3130 3130 3130 3130 3130 3129 3129 3129 3129 3129 3129 3129 3129 3130 3130 3131 3132 3134 3135 3136 3138 3139 3140 3141 3142 3142 3142 3143 3143 3143 3144 3144 3144 3144 3143 3143 3145
3126 3126 3126 3127 3128 3128 3129 3129 3130 3130 3130 3131 3131 3131 3131 3131 3131 3131 3131 3131 3132 3132 3132 3132 3132 3133 3133 3133 3133 3133 3132 3132 3132 3132 3132 3132 3131 3131 3131 3130 3130 3130 3130 3130 3130 3130 3129 3129 3129 3129 3129 3128 3128 3128 3128 3128 3128 3128 3127 3127 3128 3128 3128 3129 3130 3131 3133 3134 3136 3137 3138 3138 3139 3140 3140 3141 3141 3141 3141 3141 3141 3142 3142 3142 3143
3122 3123 3125 3126 3127 3127 3128 3128 3128 3129 3129 3130 3130 3131 3131 3131 3131 3131 3131 3130 3130 3131 3131 3131 3131 3132 3132 3132 3132 3132 3132 3132 3131 3131 3131 3131 3131 3131 3130 3130 3129 3129 3129 3129 3129 3128 3128 3128 3128 3128 3127 3127 3127 3127 3127 3127 3127 3126 3127 3127 3127 3127 3127 3128 3128 3129 3130 3132 3133 3134 3135 3136 3136 3137 3138 3139 3139 3140 3139 3139 3140 3140 3140 3141 3142
3119 3121 3123 3125 3126 3126 3127 3127 3127 3128 3128 3128 3129 3130 3130 3130 3130 3130 3130 3130 3130 3130 3130 3130 3130 3131 3131 3131 3131 3131 3131 3131 3131 3131 3130 3130 3130 3130 3130 3129 3129 3128 3128 3128 3128 3127 3127 3126 3126 3126 3126 3126 3126 3126 3125 3125 3125 3125 3125 3125 3126 3126 3126 3126 3127 3127 3128 3129 3130 3131 3132 3132 3133 3134 3135 3135 3136 3137 3137 3137 3138 3138 3138 3139 3139
3122 3121 3122 3123 3123 3124 3124 3125 3125 3126 3127 3127 3128 3129 3129 3129 3129 3129 3129 3129 3129 3129 3129 3129 3129 3130 3130 3130 3130 3130 3130 3130 3130 3130 3130 3130 3129 3129 3129 3129 3129 3128 3127 3127 3126 3126 3126 3125 3125 3124 3124 3124 3124 3124 3124 3124 3123 3123 3124 3124 3124 3124 3125 3125 3125 3126 3126 3126 3127 3128 3129 3129 3129 3130 3131 3132 3132 3134 3135 3135 3135 3136 3136 3136 3137
3122 3123 3123 3122 3120 3120 3121 3122 3123 3124 3125 3126 3126 3127 3128 3128 3128 3128 3128 3129 3129 3129 3129 3129 3129 3129 3129 3129 3129 3129 3129 3129 3129 3129 3129 3129 3129 3128 3128 3128 3128 3127 3127 3126 3125 3125 3125 3124 3124 3123 3123 3122 3122 3122 3122 3122 3122 3122 3122 3122 3122 3123 3123 3123 3123 3123 3124 3124 3125 3125 3126 3127 3127 3127 3128 3128 3129 3130 3131 3132 3132 3133 3133 3133 3133